sat.trackr.live / text

‹ back to catalog

STARLINK-30318

NORAD 57711 · 2023-129P

PAYLOAD ACTIVE UNKNOWN

§ Identity

Operator
Country
US
Launch date
2023-08-27
Launch site
AFETR
Launch vehicle
Mass (kg)
RCS (m²)

Purposes: comms

External: N2YO · Heavens-Above · Gunter

§ Orbital elements

Epoch: 2026-09-20T22:02:14.152704Z

Period
94.27 min
Inclination
43.0063°
Eccentricity
0.0001775
Mean motion
15.27576432 rev/d
Perigee alt
481.8 km
Apogee alt
484.3 km
Semi-major
6,861.2 km
B*
2.1315e-6
RAAN
95.0561°
Arg perigee
258.0982°
Mean anomaly
101.9670°
Rev number
17,040

§ Raw data

STARLINK-303181 57711U 23129P   26263.91821936 -.00000204  00000+0  21315-5 0  99992 57711  43.0063  95.0561 0001775 258.0982 101.9670 15.27576432170407

JSON: /api/v1/satellites/57711 · /tle

For live sub-satellite position, see the globe view (requires WebGL).

§ Visibility from observer

Set your observer location to see the next 7 days of passes ≥ 10°. The values pass through the URL so the page stays shareable.

No JS? Fill the form by hand. The geolocation button needs JavaScript.